If you wish to contribute or participate in the discussions about articles you are invited to join SKYbrary as a registered user

 Actions

Abu Musa Airport

From SKYbrary Wiki

OIBA
Airport
ICAO: OIBA – IATA: AEU
Summary
Name Abu Musa Airport
Region Asia and Pacific
Territory Iran IR.gif
Location Abu Musa Island, Hormozgan
Serving Abu Musa
Elevation 7.01 m23 ft7.01 m
Coordinates 25° 52' 33.4236", 55° 1' 57.8352"
Close to Persian Gulf
Runways
Designator Length Width Surface ROPS
8/26 2986 m9,796.588 ft 45 m147.638 ft ASP /


METAR
Observation OIBA 221000Z 09006KT 5000 HZ NSC 37/28 Q1006
Station Abumusa Island / Abumusa
Date/Time 22 September 2018 10:00:00
Wind direction 90°
Wind speed 06 kts
Lowest cloud amount nil significant cloud
Temperature 37°C
Dew point 28°C
Humidity 60%
QNH 1006 hPa
Weather condition n/a

Abu Musa Airport or Abumusa Airport is an airport serving Abu Musa Island, in the Hormozgan Province in Iran.

Climatology

Hot desert climate (Köppen climate classification BWh).

Maps

Terrain

Loading map...

Airport Layout

Loading map...


Accidents & Serious Incidents at or in vicinity of OIBA

None on SKYbrary